Weather History for Cape Cod CGAS, MA

Change the Weather History Date:

Sunday, March 17, 2013

  Actual Average Record
Temperature  
Mean Temperature 32 °F -  
Max Temperature 39 °F 41 °F 68 °F (2003)
Min Temperature 24 °F 26 °F 12 °F (2014)
Degree Days  
Heating Degree Days 34    
Moisture  
Dew Point 15 °F    
Average Humidity 54    
Maximum Humidity 87    
Minimum Humidity 26    
Precipitation  
Precipitation 0.00 in - - ()
Sea Level Pressure  
Sea Level Pressure 30.03 in    
Wind  
Wind Speed 7 mph (NW)    
Max Wind Speed 16 mph    
Max Gust Speed 21 mph    
Visibility 10 miles    
Events      
Averages and records for this station are not official NWS values.
T = Trace of Precipitation, MM = Missing Value Source: NWS Daily Summary

Daily Weather History Graph

Daily Weather History Graph

Search for Another Location

Airport:

Trip Planner

Search our weather history database for the weather conditions in past years. The results will help you decide how hot, cold, wet, or windy it might be!

Date:

Astronomy

Mar. 17, 2013 Rise Set
Actual Time 6:50 AM EDT 6:51 PM EDT
Civil Twilight 6:22 AM EDT 7:18 PM EDT
Nautical Twilight 5:50 AM EDT 7:51 PM EDT
Astronomical Twilight 5:17 AM EDT 8:24 PM EDT
Moon 9:56 AM EDT (3/17) 12:00 AM EDT (3/17)
Length of Visible Light 12h 56m
Length of Day
12h 01m
Waxing Crescent, 31% of the Moon is Illuminated
Mar 17
Waxing Crescent
Mar 19
First Quarter
Mar 27
Full
Apr 3
Last Quarter
Apr 10
New

Hourly Weather History & Observations

Time (EDT) Temp. Windchill Dew Point Humidity Pressure Visibility Wind Dir Wind Speed Gust Speed Precip Events Conditions
12:15 AM 32.0 °F 23.6 °F 28.4 °F 87% 29.87 in 10.0 mi WSW 10.4 mph - N/A   Overcast
12:35 AM 32.0 °F 24.8 °F 28.4 °F 87% 29.87 in 10.0 mi WSW 8.1 mph - N/A   Overcast
12:55 AM 32.0 °F 25.6 °F 28.4 °F 87% 29.87 in 10.0 mi WSW 6.9 mph - N/A   Overcast
1:15 AM 32.0 °F 26.4 °F 28.4 °F 87% 29.87 in 10.0 mi WSW 5.8 mph - N/A   Overcast
1:35 AM 32.0 °F 26.4 °F 26.6 °F 80% 29.88 in 10.0 mi WSW 5.8 mph - N/A   Overcast
1:55 AM 30.2 °F 25.4 °F 26.6 °F 86% 29.88 in 10.0 mi WSW 4.6 mph - N/A   Overcast
2:15 AM 30.2 °F 26.7 °F 24.8 °F 80% 29.88 in 10.0 mi WSW 3.5 mph - N/A   Mostly Cloudy
2:35 AM 28.4 °F - 24.8 °F 86% 29.87 in 10.0 mi Calm Calm - N/A   Partly Cloudy
2:55 AM 28.4 °F 24.6 °F 24.8 °F 86% 29.88 in 10.0 mi NW 3.5 mph - N/A   Clear
3:15 AM 28.4 °F 24.6 °F 24.8 °F 86% 29.88 in 10.0 mi NW 3.5 mph - N/A   Clear
3:35 AM 26.6 °F 21.2 °F 23.0 °F 86% 29.88 in 10.0 mi NW 4.6 mph - N/A   Clear
3:55 AM 26.6 °F 20.0 °F 23.0 °F 86% 29.88 in 10.0 mi NW 5.8 mph - N/A   Clear
4:15 AM 26.6 °F 22.6 °F 23.0 °F 86% 29.88 in 10.0 mi NW 3.5 mph - N/A   Clear
4:35 AM 26.6 °F 22.6 °F 21.2 °F 80% 29.89 in 10.0 mi NW 3.5 mph - N/A   Clear
4:55 AM 26.6 °F 22.6 °F 21.2 °F 80% 29.89 in 10.0 mi NNW 3.5 mph - N/A   Clear
5:15 AM 26.6 °F 21.2 °F 21.2 °F 80% 29.91 in 10.0 mi NW 4.6 mph - N/A   Clear
5:35 AM 24.8 °F 17.9 °F 21.2 °F 86% 29.92 in 10.0 mi NW 5.8 mph - N/A   Clear
5:55 AM 26.6 °F 20.0 °F 23.0 °F 86% 29.92 in 10.0 mi NW 5.8 mph - N/A   Clear
6:15 AM 24.8 °F 19.1 °F 21.2 °F 86% 29.93 in 10.0 mi NW 4.6 mph - N/A   Clear
6:35 AM 24.8 °F 19.1 °F 21.2 °F 86% 29.94 in 10.0 mi NW 4.6 mph - N/A   Clear
6:55 AM 24.8 °F 20.5 °F 19.4 °F 80% 29.94 in 10.0 mi NNW 3.5 mph - N/A   Clear
7:15 AM 24.8 °F 20.5 °F 19.4 °F 80% 29.95 in 10.0 mi NW 3.5 mph - N/A   Clear
7:35 AM 26.6 °F 19.1 °F 21.2 °F 80% 29.96 in 10.0 mi NW 6.9 mph - N/A   Clear
7:55 AM 28.4 °F 21.2 °F 21.2 °F 74% 29.97 in 10.0 mi NW 6.9 mph - N/A   Clear
8:15 AM 30.2 °F 23.4 °F 19.4 °F 64% 29.98 in 10.0 mi NW 6.9 mph - N/A   Clear
8:35 AM 32.0 °F 24.8 °F 19.4 °F 60% 29.98 in 10.0 mi NW 8.1 mph - N/A   Clear
8:55 AM 32.0 °F 22.5 °F 19.4 °F 60% 29.99 in 10.0 mi WNW 12.7 mph 16.1 mph N/A   Scattered Clouds
9:15 AM 32.0 °F 23.0 °F 14.0 °F 48% 29.99 in 10.0 mi NW 11.5 mph - N/A   Scattered Clouds
9:35 AM 33.8 °F 25.8 °F 14.0 °F 44% 30.00 in 10.0 mi NW 10.4 mph 16.1 mph N/A   Clear
9:55 AM 35.6 °F 26.6 °F 14.0 °F 41% 30.01 in 10.0 mi NW 13.8 mph - N/A   Clear
10:15 AM 35.6 °F 27.5 °F 14.0 °F 41% 30.01 in 10.0 mi NNW 11.5 mph 17.3 mph N/A   Clear
10:35 AM 35.6 °F 27.1 °F 14.0 °F 41% 30.00 in 10.0 mi NNW 12.7 mph 16.1 mph N/A   Clear
10:55 AM 35.6 °F 26.6 °F 15.8 °F 44% 30.02 in 10.0 mi NW 13.8 mph - N/A   Clear
11:15 AM 35.6 °F 28.0 °F 15.8 °F 44% 30.03 in 10.0 mi WNW 10.4 mph 18.4 mph N/A   Clear
11:35 AM 35.6 °F 27.1 °F 14.0 °F 41% 30.03 in 10.0 mi WNW 12.7 mph 17.3 mph N/A   Partly Cloudy
11:55 AM 37.4 °F 28.9 °F 15.8 °F 41% 30.03 in 10.0 mi WNW 13.8 mph 18.4 mph N/A   Clear
12:15 PM 37.4 °F 30.3 °F 15.8 °F 41% 30.03 in 10.0 mi West 10.4 mph - N/A   Clear
12:35 PM 37.4 °F 29.8 °F 14.0 °F 38% 30.02 in 10.0 mi West 11.5 mph - N/A   Clear
12:55 PM 37.4 °F 28.5 °F 12.2 °F 36% 30.01 in 10.0 mi WNW 15.0 mph 19.6 mph N/A   Clear
1:15 PM 39.2 °F 30.5 °F 12.2 °F 33% 30.01 in 10.0 mi NW 16.1 mph 20.7 mph N/A   Clear
1:35 PM 39.2 °F 32.0 °F 12.2 °F 33% 30.00 in 10.0 mi NW 11.5 mph 20.7 mph N/A   Clear
1:55 PM 39.2 °F 32.0 °F 10.4 °F 31% 30.01 in 10.0 mi NW 11.5 mph 19.6 mph N/A   Unknown
2:15 PM 37.4 °F 32.1 °F 15.8 °F 41% 30.01 in 10.0 mi North 6.9 mph 17.3 mph N/A   Clear
2:35 PM 37.4 °F 30.8 °F 15.8 °F 41% 30.01 in 10.0 mi NE 9.2 mph 17.3 mph N/A   Partly Cloudy
2:55 PM 37.4 °F 32.1 °F 12.2 °F 36% 30.02 in 10.0 mi NNE 6.9 mph - N/A   Scattered Clouds
3:15 PM 39.2 °F 32.5 °F 10.4 °F 31% 30.03 in 10.0 mi North 10.4 mph 16.1 mph N/A   Scattered Clouds
3:35 PM 35.6 °F 28.6 °F 12.2 °F 38% 30.04 in 10.0 mi North 9.2 mph 18.4 mph N/A   Partly Cloudy
3:55 PM 37.4 °F 30.3 °F 10.4 °F 33% 30.05 in 10.0 mi NNE 10.4 mph 16.1 mph N/A   Partly Cloudy
4:15 PM 37.4 °F 32.1 °F 10.4 °F 33% 30.06 in 10.0 mi NW 6.9 mph - N/A   Clear
4:35 PM 35.6 °F 27.5 °F 10.4 °F 35% 30.06 in 10.0 mi NE 11.5 mph - N/A   Clear
4:55 PM 37.4 °F 30.8 °F 8.6 °F 30% 30.07 in 10.0 mi NNW 9.2 mph - N/A   Clear
5:15 PM 37.4 °F 31.4 °F 5.0 °F 26% 30.08 in 10.0 mi WNW 8.1 mph - N/A   Clear
5:35 PM 35.6 °F 27.5 °F 10.4 °F 35% 30.09 in 10.0 mi NNE 11.5 mph 17.3 mph N/A   Clear
5:55 PM - - - N/A% - - North - - N/A   Unknown
6:15 PM 35.6 °F 29.2 °F 6.8 °F 30% 30.11 in 10.0 mi NW 8.1 mph - N/A   Unknown
6:35 PM 33.8 °F 27.0 °F 3.2 °F 28% 30.12 in 10.0 mi NNW 8.1 mph - N/A   Clear
6:55 PM 32.0 °F 27.5 °F 3.2 °F 30% 30.14 in 10.0 mi NNW 4.6 mph - N/A   Clear
7:15 PM 32.0 °F 28.7 °F 3.2 °F 30% 30.15 in 10.0 mi North 3.5 mph - N/A   Partly Cloudy
7:35 PM 32.0 °F 28.7 °F 5.0 °F 32% 30.17 in 10.0 mi NW 3.5 mph - N/A   Mostly Cloudy
7:55 PM 30.2 °F 25.4 °F 5.0 °F 34% 30.18 in 10.0 mi NNW 4.6 mph - N/A   Overcast
8:15 PM 30.2 °F 24.3 °F 5.0 °F 34% 30.20 in 10.0 mi NNW 5.8 mph - N/A   Overcast
8:35 PM 30.2 °F 23.4 °F 5.0 °F 34% 30.21 in 10.0 mi NNW 6.9 mph - N/A   Mostly Cloudy
8:55 PM 30.2 °F 25.4 °F 5.0 °F 34% 30.22 in 10.0 mi North 4.6 mph - N/A   Mostly Cloudy
9:15 PM 28.4 °F 23.3 °F 5.0 °F 37% 30.22 in 10.0 mi NNW 4.6 mph - N/A   Scattered Clouds
9:35 PM 28.4 °F - 5.0 °F 37% 30.24 in 10.0 mi Calm Calm - N/A   Mostly Cloudy
9:55 PM 26.6 °F 22.6 °F 8.6 °F 47% 30.25 in 10.0 mi North 3.5 mph - N/A   Mostly Cloudy
10:15 PM 28.4 °F 23.3 °F 6.8 °F 40% 30.25 in 10.0 mi North 4.6 mph - N/A   Scattered Clouds
10:35 PM 26.6 °F 22.6 °F 8.6 °F 47% 30.27 in 10.0 mi North 3.5 mph - N/A   Scattered Clouds
10:55 PM 26.6 °F 20.0 °F 8.6 °F 47% 30.27 in 10.0 mi North 5.8 mph - N/A   Partly Cloudy
11:15 PM 26.6 °F 20.0 °F 8.6 °F 47% 30.28 in 10.0 mi North 5.8 mph - N/A   Clear
11:35 PM 26.6 °F 22.6 °F 6.8 °F 43% 30.29 in 10.0 mi North 3.5 mph - N/A   Clear
11:55 PM 26.6 °F 20.0 °F 8.6 °F 47% 30.29 in 10.0 mi North 5.8 mph - N/A   Partly Cloudy